Location: Porsmilin
(48.3500°N, 4.6667°W)
Time: 14:10:22
(UTC+00:00)

Daily predictions for brighter satellites

Satellite Brightness Start Highest point End
(mag) Time Altitude Azimuth Time Altitude Azimuth Time Altitude Azimuth
Cosmos 2034 Rocket 4.0 16:50:25 10° S 16:56:32 74° E 17:02:41 10° NNE
SL-24 R/B - RUBIN 2 3.5 16:54:09 10° NW 16:58:43 65° NE 17:03:01 10° SE
USA 306 3.6 16:55:05 10° WNW 16:59:06 38° N 17:03:05 10° ENE
Cosmos 1939 Rocket 3.4 16:57:29 10° SE 17:01:18 39° ENE 17:05:06 10° N
Cosmos 1743 Rocket 3.5 16:58:02 10° N 17:02:24 80° E 17:06:44 10° SSE
CZ-2D R/B 4.4 17:04:48 10° ESE 17:07:47 22° ENE 17:10:46 10° NNE
SJ 16-02 4.4 17:05:30 10° WNW 17:08:04 15° W 17:10:39 10° SW
CZ-4B R/B 4.2 17:03:56 10° ESE 17:08:07 24° ENE 17:12:16 10° N
Cosmos 1782 3.4 17:06:18 10° SSE 17:09:59 37° E 17:13:40 10° NNE
Cosmos 2026 Rocket 4.0 17:07:24 10° N 17:13:28 60° ENE 17:19:27 10° SSE
Cosmos 1666 Rocket 4.3 17:09:34 10° N 17:13:33 31° ENE 17:17:29 10° SE
Cosmos 1634 Rocket 4.3 17:08:21 10° SSE 17:14:24 50° E 17:20:29 10° NNE
Cosmos 2195 Rocket 4.5 17:11:41 10° N 17:17:52 75° E 17:24:05 10° SSE
SMAP 3.1 17:13:48 10° SSE 17:18:20 57° ENE 17:22:55 10° N
USA 307 3.5 17:15:16 10° WNW 17:19:18 40° N 17:22:57 12° ENE
Cosmos 1340 Rocket 4.1 17:15:41 10° NNW 17:19:37 46° W 17:23:31 10° S
Cosmos 2360 Rocket 3.7 17:16:02 10° N 17:19:37 17° NE 17:22:41 11° ENE
Okean O Rocket 2.9 17:17:04 10° ESE 17:20:11 19° ENE 17:23:19 10° NNE
Cosmos 1809 Rocket 4.4 17:14:06 10° N 17:20:13 74° E 17:26:17 10° SSE
Cosmos 468 Rocket 4.3 17:15:19 10° SSW 17:20:28 72° WNW 17:25:43 10° NNE
Cosmos 1666 3.4 17:17:44 10° N 17:21:01 29° ENE 17:24:18 10° SE
EP 1 4.5 17:17:55 10° SW 17:21:11 73° SE 17:23:31 13° NE
CZ-4C R/B 4.2 17:21:50 10° N 17:25:29 46° WNW 17:28:57 10° SW
Cosmos 2221 4.2 17:25:21 10° SW 17:29:14 33° WNW 17:33:11 10° N
Lacrosse 5 rocket 1.4 17:25:49 10° NW 17:29:37 53° NNE 17:33:37 10° ESE
Sich 1 2.9 17:27:41 10° N 17:32:01 81° E 17:36:20 10° SSE
Cosmos 44 Rocket 3.4 17:29:37 10° NNW 17:34:28 52° NE 17:39:08 10° ESE
ATLAS CENTAUR R/B 3.9 17:37:47 10° NW 17:39:35 12° NNW 17:41:26 10° N
Cosmos 1697 Rocket 4.0 17:35:18 10° NW 17:40:35 44° WSW 17:45:52 10° S
USA 267 3.3 17:34:56 13° ENE 17:40:47 71° SE 17:47:18 10° SW
Cosmos 1805 Rocket 4.0 17:37:42 10° NNW 17:42:01 63° W 17:46:17 10° S
USA 308 3.4 17:37:57 10° WNW 17:42:02 43° NNE 17:44:41 20° ENE
Cosmos 1818 3.6 17:36:46 10° NNW 17:42:13 61° NE 17:47:37 10° SE
Cosmos 2322 Rocket 3.0 17:37:17 10° NNW 17:42:17 30° NE 17:47:07 11° ESE
CZ-2C R/B 4.0 17:43:08 10° S 17:43:25 10° SSE 17:43:42 10° SSE
Meteor 1-26 Rocket 4.4 17:37:59 10° S 17:43:59 81° E 17:50:04 10° NNE
deb Chang Zheng 4 4.2 17:40:16 10° SE 17:44:07 33° ENE 17:47:59 10° N
PSLV R/B 3.6 17:42:44 10° SSE 17:46:23 62° ENE 17:50:07 10° N
Meteor 1-11 Rocket 4.4 17:41:28 10° N 17:46:27 31° ENE 17:51:29 10° SE
Cosmos 1980 Rocket 2.5 17:40:50 10° NNW 17:46:31 74° WSW 17:52:06 10° SSE
Cosmos 1655 Rocket 4.4 17:41:34 10° N 17:47:32 39° ENE 17:53:25 10° SE
SeaSat 1 4.5 17:47:32 10° N 17:51:14 21° NW 17:54:54 10° W
Cosmos 1812 2.6 17:48:05 10° S 17:51:53 64° E 17:55:43 10° NNE
ISS -1.9 17:49:02 10° W 17:52:05 31° SW 17:55:07 10° SSE
CORIOLIS 4.3 17:49:00 10° SSE 17:54:25 80° WSW 17:59:54 10° NNW
COSMOS 2455 2.9 17:49:19 10° SW 17:55:22 81° NW 18:00:48 13° NNE
Cosmos 841 Rocket 3.7 17:52:37 10° SSW 17:57:46 72° WNW 18:02:56 10° NNE
Cosmos 2208 Rocket 4.2 17:55:50 10° S 18:01:06 56° ESE 18:05:19 16° NNE
Cosmos 1515 Rocket 4.3 17:57:47 10° SSE 18:01:39 30° E 18:02:40 27° ENE
Cosmos 1544 3.7 17:58:24 10° N 18:03:11 23° ESE 18:04:57 10° SE
Cosmos 1900 4.4 17:57:24 10° SSW 18:02:09 58° ESE 18:04:56 24° NE
SL-16 R/B 2.4 17:56:55 10° NNW 18:02:27 49° NE 18:07:55 10° SE
APEX 4.2 18:00:23 10° SSE 18:03:16 24° ESE 18:03:16 24° ESE
Cosmos 2150 Rocket 4.1 17:58:29 10° NNW 18:03:34 52° ENE 18:08:40 10° SE
SJ-11-01 4.5 18:00:28 10° SE 18:05:01 48° ENE 18:09:35 10° N
Meteor 1-5 Rocket 4.3 17:59:02 10° N 18:05:03 85° ENE 18:10:57 10° SSE
Cosmos 2082 Rocket 2.3 18:00:05 10° SSW 18:05:46 78° WNW 18:10:56 13° NNE
Meteor 2-16 Rocket 4.4 18:00:04 10° N 18:06:14 86° E 18:12:23 10° S
USA 305 3.1 18:02:53 10° WNW 18:07:04 54° NNE 18:08:42 33° E
Cosmos 1356 Rocket 4.0 18:03:12 10° N 18:07:05 35° ENE 18:10:59 10° SE
GEOS 3 Rocket 4.4 18:06:17 26° ENE 18:08:03 32° NNE 18:12:35 10° NNW
Cosmos 921 Rocket 3.3 18:05:03 10° S 18:09:01 43° ESE 18:10:23 32° ENE
ARGOS 3.2 18:04:44 10° SSE 18:10:00 56° ENE 18:15:17 10° N
H-2A R/B 1.9 18:05:18 10° SSE 18:10:26 88° ENE 18:15:29 10° NNW
ATLAS 2AS CENTAUR R/B 4.1 18:05:24 10° NW 18:11:28 25° N 18:14:39 19° NE
ERBS 4.1 18:09:55 10° NW 18:12:07 18° N 18:12:07 18° N
Cosmos 1125 Rocket 3.5 18:07:32 10° NNW 18:12:44 57° ENE 18:17:55 10° SE
USA 234 3.4 18:08:37 10° SE 18:15:10 78° SW 18:21:44 10° NW
Cosmos 2278 4.3 18:13:06 10° NW 18:18:42 58° WSW 18:24:15 10° S
Cosmos 2333 Rocket 3.4 18:15:17 10° N 18:19:32 23° NE 18:19:32 23° NE
CZ-4 R/B 4.4 18:15:49 10° SSE 18:19:52 59° ENE 18:23:57 10° N
COSMO-SKYMED 1 2.6 18:18:09 27° NNE 18:20:23 57° E 18:24:39 10° S
Cosmos 1833 Rocket 4.1 18:16:29 10° WSW 18:21:32 33° NW 18:26:38 10° NNE
Cosmos 1633 Rocket 3.4 18:18:31 10° NNW 18:22:53 67° W 18:27:13 10° S
Cosmos 1151 Rocket 3.4 18:21:53 10° SSW 18:26:11 63° WNW 18:30:32 10° N
Meteor 2-15 Rocket 4.5 18:20:17 10° SSE 18:26:12 54° E 18:32:08 10° NNE
Helios 1B 4.5 18:25:33 32° NNE 18:27:26 65° ESE 18:31:43 10° S
YAOGAN 1 4.1 18:31:17 22° NNE 18:31:17 22° NNE 18:33:04 10° N
CZ-2C R/B 2.4 18:25:40 14° NNE 18:30:08 73° ESE 18:35:18 10° S
SL-08 RB Rocket 3.7 18:27:04 10° SSE 18:31:37 59° ENE 18:36:09 10° N
Cosmos 2219 Rocket 3.6 18:27:28 10° N 18:30:45 21° NNE 18:30:45 21° NNE
Landsat 5 3.6 18:33:23 49° SE 18:33:23 49° SE 18:36:50 10° S
CZ-4C R/B 3.7 18:29:02 10° NW 18:36:08 55° WSW 18:44:19 10° SSE
Cosmos 2279 Rocket 4.3 18:32:19 10° SSW 18:38:28 66° WNW 18:44:40 10° N
USA 306 2.7 18:35:09 10° WNW 18:39:24 72° NNE 18:39:40 69° ENE
Cosmos 2266 Rocket 4.0 18:35:11 10° N 18:41:37 85° E 18:48:04 10° S
MOS 1-B Rocket 4.3 18:38:45 10° NNE 18:44:42 73° WNW 18:51:31 10° SSW
Meteor 2-15 4.4 18:41:45 10° S 18:47:52 85° W 18:54:00 10° N
CZ-4B R/B 3.6 18:42:57 10° S 18:48:17 61° WSW 18:53:35 10° NNW
Cosmos 1933 Rocket 3.4 18:44:47 10° N 18:49:10 87° E 18:53:30 10° S
Meteor 1-27 Rocket 3.6 18:45:17 10° S 18:50:43 61° E 18:51:38 53° NE
X-37B 3.2 18:48:42 10° SSW 18:49:22 14° SSW 18:49:22 14° SSW
Cosmos 1470 Rocket 4.3 18:50:42 10° NNW 18:55:03 53° W 18:59:24 10° S
Okean O Rocket 2.2 18:51:44 10° S 18:56:08 58° W 19:00:33 10° NNW
USA 307 3.1 18:55:17 10° WNW 18:58:59 66° NW 18:58:59 66° NW
Cosmos 2360 Rocket 2.1 18:59:07 10° NNW 19:04:31 65° NE 19:04:31 65° NE
Cosmos 2237 4.1 18:59:02 10° NNW 19:04:48 86° ENE 19:06:10 54° SE
SKYMED 2 4.4 19:06:46 31° NNW 19:08:26 48° WNW 19:12:35 10° SW
Lacrosse 5 rocket 2.9 19:05:02 10° WNW 19:08:34 31° SW 19:09:33 28° SSW
ATLAS CENTAUR R/B 3.3 19:04:51 10° W 19:10:45 32° NNW 19:10:55 32° NNW
Aureole 3 Rocket 3.5 19:07:08 10° S 19:11:40 90° S 19:18:10 10° N
CZ-2C R/B 4.0 19:20:04 10° SSW 19:20:58 12° SSW 19:20:58 12° SSW
Cosmos 1241 Rocket 4.4 19:15:40 10° SSW 19:21:32 67° SSE 19:21:32 67° SSE
USA 308 4.1 19:17:54 10° WNW 19:20:44 40° WNW 19:20:44 40° WNW
USA 267 3.6 19:22:16 46° NNE 19:23:43 55° NNW 19:30:03 10° W
COSMOS 2428 4.4 19:20:09 10° NNW 19:22:24 22° N 19:22:24 22° N
Cosmos 2322 Rocket 2.7 19:21:06 10° NW 19:26:42 58° WSW 19:29:03 34° S
ATLAS 5 CENTAUR R/B 3.8 19:30:23 10° NW 19:33:39 26° W 19:33:39 26° W
GEOS 3 Rocket 4.5 19:47:24 45° NW 19:47:24 45° NW 19:51:00 10° NW
SL-16 R/B 3.8 19:41:24 10° NW 19:46:20 31° WSW 19:51:15 10° SSW
Cosmos 2082 Rocket 4.3 19:46:53 10° W 19:50:50 19° NW 19:52:48 16° NNW
NOSS 3-4 (A) 4.3 19:54:26 10° NW 19:59:21 50° NNW 19:59:21 50° NNW
NOSS 3-4 (C) 4.3 19:54:32 10° NW 19:59:25 50° NNW 19:59:25 50° NNW
ATLAS 2AS CENTAUR R/B 3.9 19:57:26 10° NW 20:02:06 33° N 20:02:06 33° N
Cosmos 2333 Rocket 3.8 19:59:02 10° NNW 20:01:34 27° NNW 20:01:34 27° NNW
Cosmos 2219 Rocket 4.2 20:10:51 10° NNW 20:12:29 20° NNW 20:12:29 20° NNW
